Flag for Switzerland Weather past 2 weeks in Buchs, St. Gallen, Switzerland

Now
37 °F

Chilly.


Feels Like: 29 °F
Forecast: 36 / 62 °F
Wind: 13 mph from North

Location: Vaduz


UV Index: 0 (Low)

Visibility: N/A


Pressure: 29.93 "Hg

Humidity: 91%

Dew point: 35 °F

Location of BuchsLocation

Historic Weather in Buchs

°F

Buchs temperature yesterday

Maximum temperature yesterday: 60 °F (at 4:00 PM)
Minimum temperature yesterday: 30 °F (at 6:00 AM)
Average temperature yesterday: 45 °F

Past Weeks' High & Low Weather Summary

 TemperatureHumidityPressure
High69 °F (Apr 11, 4:00 PM)94% (Apr 13, 9:00 AM)30.37 "Hg (Apr 13, 9:00 AM)
Low30 °F (Apr 17, 6:00 AM)25% (Apr 17, 3:00 PM)29.83 "Hg (Apr 18, 1:00 PM)
Average51 °F58%30.10 "Hg
* Reported Apr 3 5:00 PM — Apr 18 5:00 PM, Buchs, Weather by CustomWeather, © 2014

Note: Actual official high and low records may vary slightly from our data, if they occured in-between our weather recording intervals... More about our weather records

Advertising

Historic Weather Conditions — Data for Previous 24 hours

 ConditionsComfort  
Time TempWeatherWind HumidityBarometerVisibility
5:00 PM
Apr 18
47 °FRain. Overcast.3 mph87%29.85 "Hg5 mi
4:00 PM47 °FCool.2 mph82%29.86 "HgN/A
3:00 PM48 °FCool.3 mph76%29.86 "HgN/A
2:00 PM52 °FOvercast.9 mph56%29.84 "Hg5 mi
1:00 PM54 °FCool.6 mph48%29.83 "HgN/A
12:00 PM52 °FCool.2 mph45%29.86 "HgN/A
11:00 AM50 °FOvercast.3 mph50%29.88 "Hg5 mi
10:00 AM48 °FCool.9 mph49%29.89 "HgN/A
9:00 AM46 °FCool.7 mph51%29.93 "HgN/A
8:00 AM45 °FCool.6 mph55%29.94 "HgN/A
7:00 AM45 °FCool.5 mph49%29.94 "HgN/A
6:00 AM44 °FQuite cool.5 mph53%29.96 "HgN/A
5:00 AM46 °FOvercast.5 mph47%29.97 "Hg9 mi
4:00 AM44 °FQuite cool.5 mph54%29.98 "HgN/A
3:00 AM46 °FCool.5 mph51%29.99 "HgN/A
2:00 AM46 °FOvercast.2 mph51%30.01 "Hg9 mi
6:00 PM
Apr 17
60 °FRefreshingly cool.8 mph28%30.00 "HgN/A
Weather by CustomWeather, © 2014

See weather overview